Fallon NAS, NV

2:38 AM PDT on October 18, 2017 (GMT -0700)
Fallon Naval Air Station

Weather History for KNFL - May, 2014

Change the Weather History Date:

Thursday, May 15, 2014

  Actual Average Record
Temperature  
Mean Temperature 68 °F -  
Max Temperature 89 °F 75 °F 90 °F (2012)
Min Temperature 46 °F 42 °F 28 °F (1999)
Cooling Degree Days 2    
Growing Degree Days 18 (Base 50)    
Moisture  
Dew Point 21 °F    
Average Humidity 19    
Maximum Humidity 40    
Minimum Humidity 7    
Precipitation  
Precipitation 0.00 in - - ()
Sea Level Pressure  
Sea Level Pressure 30.09 in    
Wind  
Wind Speed 5 mph (SW)    
Max Wind Speed 15 mph    
Max Gust Speed -    
Visibility 10 miles    
Events      
Averages and records for this station are not official NWS values.
T = Trace of Precipitation, MM = Missing Value Source: NWS Daily Summary

Daily Weather History Graph

Daily Weather History Graph

Search for Another Location

Airport or City:

Trip Planner

Search our weather history database for the weather conditions in past years. The results will help you decide how hot, cold, wet, or windy it might be!

Date:

Astronomy

May. 15, 2014 Rise Set
Actual Time 5:40 AM PDT 8:01 PM PDT
Civil Twilight 5:10 AM PDT 8:32 PM PDT
Nautical Twilight 4:33 AM PDT 9:09 PM PDT
Astronomical Twilight 3:52 AM PDT 9:51 PM PDT
Moon 9:14 PM PDT (5/15) 6:31 AM PDT (5/15)
Length of Visible Light 15h 21m
Length of Day
14h 21m
Full, 99% of the Moon is Illuminated
May 15
Full
May 21
Last Quarter
May 28
New
Jun 5
First Quarter
Jun 12
Full

Hourly Weather History & Observations

Time (PDT) Temp. Windchill Dew Point Humidity Pressure Visibility Wind Dir Wind Speed Gust Speed Precip Events Conditions
12:56 AM 52.0 °F - 21.0 °F 30% 30.11 in 10.0 mi SSE 8.1 mph - N/A   Clear
1:56 AM 51.1 °F - 23.0 °F 33% 30.12 in 10.0 mi Calm Calm - N/A   Clear
2:56 AM 51.1 °F - 21.9 °F 32% 30.12 in 10.0 mi South 3.5 mph - N/A   Clear
3:56 AM 50.0 °F - 21.0 °F 32% 30.12 in 10.0 mi SSE 5.8 mph - N/A   Clear
4:56 AM 48.9 °F - 21.0 °F 33% 30.12 in 10.0 mi SSW 5.8 mph - N/A   Clear
5:56 AM 46.0 °F 41.9 °F 21.9 °F 39% 30.12 in 10.0 mi SSE 8.1 mph - N/A   Clear
6:01 AM 46.0 °F 41.4 °F 23.0 °F 40% 30.24 in 10.0 mi South 9.2 mph - N/A   Scattered Clouds
6:56 AM 55.0 °F - 21.0 °F 27% 30.14 in 10.0 mi South 3.5 mph - N/A   Scattered Clouds
7:56 AM 63.0 °F - 23.0 °F 22% 30.14 in 10.0 mi Calm Calm - N/A   Mostly Cloudy
8:56 AM 69.1 °F - 19.9 °F 15% 30.15 in 10.0 mi Calm Calm - N/A   Mostly Cloudy
9:56 AM 75.9 °F - 18.0 °F 11% 30.14 in 10.0 mi North 3.5 mph - N/A   Mostly Cloudy
10:56 AM 79.0 °F - 19.9 °F 11% 30.13 in 10.0 mi Calm Calm - N/A   Mostly Cloudy
11:56 AM 82.0 °F - 19.0 °F 10% 30.11 in 10.0 mi Calm Calm - N/A   Mostly Cloudy
12:56 PM 84.9 °F - 18.0 °F 8% 30.09 in 10.0 mi SSW 8.1 mph - N/A   Mostly Cloudy
1:56 PM 88.0 °F - 18.0 °F 8% 30.06 in 10.0 mi NW 6.9 mph - N/A   Overcast
2:56 PM 88.0 °F - 17.1 °F 7% 30.04 in 10.0 mi Variable 4.6 mph - N/A   Overcast
3:56 PM 89.1 °F - 17.1 °F 7% 30.02 in 10.0 mi Variable 4.6 mph - N/A   Overcast
4:56 PM 88.0 °F - 19.0 °F 8% 30.00 in 10.0 mi NE 9.2 mph - N/A   Overcast
5:56 PM 88.0 °F - 19.0 °F 8% 29.98 in 10.0 mi Variable 4.6 mph - N/A   Overcast
6:56 PM 86.0 °F - 21.0 °F 9% 29.99 in 10.0 mi West 9.2 mph - N/A   Overcast
7:56 PM 80.1 °F - 26.1 °F 14% 30.01 in 10.0 mi West 10.4 mph - N/A   Overcast
8:56 PM 77.0 °F - 21.0 °F 12% 30.02 in 10.0 mi West 15.0 mph - N/A   Overcast
9:56 PM 73.9 °F - 21.9 °F 14% 30.05 in 10.0 mi WNW 11.5 mph - N/A   Mostly Cloudy
10:56 PM 72.0 °F - 21.9 °F 15% 30.05 in 10.0 mi West 11.5 mph - N/A   Overcast
11:56 PM 64.9 °F - 23.0 °F 20% 30.06 in 10.0 mi Calm Calm - N/A   Overcast